User: anonymous   Login
Location: Unspecified
(0.0000°N, 0.0000°E)
Time: 03:18:39
(UTC+00:00)
Language:

MOZHAYETS - Orbit

View from above orbital plane
View from above orbital plane
View from above satellite
View from above satellite

Ground track
Ground track

The orbit is defined by the following mean orbital elements,

1 27560U          26106.99762402 +.00000000 +00000-0 +13554-3 0 00008
2 27560  98.4487 322.4733 0037461 205.4320 261.6489 14.61742626    08
Epoch (UTC): 16 April 2026 23:56:34
Eccentricity: 0.0037461
inclination: 98.4487°
perigee height: 661 km
apogee height: 714 km
right ascension of ascending node: 322.4733°
argument of perigee: 205.4320°
revolutions per day: 14.61742626
mean anomaly at epoch: 261.6489°

The dashed part of the orbit path shows where the satellite is in the earth's shadow,  

DLR